Wind_Speed
8 8 9 8 11 17 16 11 11 9 8 7 5 13 10 8 1 8 10 12 12 12 12 9 7 6 6 6 5 4 3 3 2 2 2 2 2 3 5 6 7 8 10 10
8 6 8 11 11 18 13 12 10 9 7 10 11 8 12 9 3 4 7 10 12 13 13 12 10 7 5 4 3 4 4 4 5 6 6 7 7 7 7 8 8 9 11 12
8 5 8 8 7 7 8 8 11 7 7 9 11 12 9 14 10 9 9 8 8 10 11 12 11 9 7 5 3 3 4 5 5 6 7 8 8 7 8 9 11 11 14 17
11 10 7 8 8 8 4 13 17 11 10 4 9 10 19 14 15 13 15 13 10 9 10 10 11 11 9 6 5 4 5 6 7 8 9 11 12 13 13 14 16 15 17 18
11 13 10 9 9 10 13 20 12 9 11 10 11 8 18 13 14 15 16 17 16 15 11 10 10 13 13 12 10 8 8 8 8 10 12 13 14 15 17 18 19 20 20 19
16 16 13 9 11 14 14 9 8 7 8 11 12 9 12 13 15 14 19 25 19 17 17 12 14 15 14 16 16 17 18 16 16 16 17 18 20 21 21 22 22 23 23 25
19 15 16 15 18 14 10 9 1 3 8 9 13 14 15 14 19 22 16 21 25 17 14 18 19 19 18 16 17 18 18 20 23 23 24 24 25 27 29 30 30 30 31 32
22 22 21 16 17 13 11 13 9 11 7 12 21 17 14 24 20 20 18 18 25 18 18 17 21 22 22 20 18 18 17 18 19 21 23 25 26 27 29 30 32 35 37 37
19 18 21 21 17 16 11 16 11 16 17 14 13 12 17 16 20 20 19 16 18 29 18 21 24 24 23 21 23 24 21 20 22 24 26 28 29 30 30 29 30 32 34 37
17 20 24 22 21 22 21 15 13 10 12 10 14 17 11 20 14 18 18 18 16 26 22 26 24 31 28 27 27 27 24 25 27 29 29 30 32 32 31 33 32 34 36 37
30 24 24 26 27 24 25 20 18 10 14 12 13 14 25 24 19 17 17 20 22 24 25 26 29 26 30 31 31 30 29 29 30 30 32 35 36 36 38 39 40 40 42 43
35 27 28 27 24 23 19 20 18 16 17 15 13 14 29 29 22 19 19 20 19 20 25 28 32 30 26 30 35 33 34 34 35 36 39 40 40 41 42 43 45 48 47 48
36 36 27 23 26 30 30 20 19 19 16 14 11 18 27 30 23 22 21 20 20 20 22 24 27 32 27 34 35 34 34 37 38 41 43 44 46 48 50 51 51 51 53 55
37 34 35 27 24 20 27 26 22 24 21 16 15 22 27 35 23 22 20 19 21 24 24 26 29 28 32 35 36 35 37 41 40 43 45 49 51 52 54 55 55 57 60 62
39 38 35 34 20 19 24 24 25 26 23 20 13 14 25 39 23 23 22 23 22 24 25 27 31 29 32 35 36 39 42 42 44 46 46 52 53 55 56 58 61 64 66 67
36 38 36 27 27 24 22 24 21 21 22 21 20 21 36 36 28 26 27 28 27 25 27 30 31 31 35 39 39 37 42 43 48 52 51 53 55 56 59 62 65 67 67 66
37 37 37 35 28 27 31 28 26 24 25 20 23 24 40 31 28 29 27 29 32 31 30 32 34 35 36 38 39 43 46 48 50 52 54 55 57 59 62 65 67 67 66 69
39 37 35 29 27 34 29 26 28 27 25 28 24 36 33 31 31 30 27 31 31 31 32 34 36 36 38 40 42 45 48 51 53 55 56 57 59 62 64 66 67 66 67 61
37 39 37 29 28 29 36 33 32 29 26 34 32 36 32 33 33 36 34 33 33 33 35 36 37 38 40 43 45 48 50 53 54 56 57 58 61 63 64 65 65 63 56 54
44 42 38 29 30 34 31 34 32 32 32 37 35 39 37 34 37 39 34 32 35 36 37 37 38 40 41 43 45 48 50 52 54 55 57 60 60 61 61 62 58 54 51 52
46 45 44 36 32 34 39 39 35 32 29 37 39 37 39 39 36 36 38 37 36 37 38 39 40 41 43 44 46 48 50 52 53 56 57 57 58 59 56 53 50 47 50 51
46 49 44 39 35 40 41 40 38 39 40 41 40 43 43 38 38 38 38 38 39 39 41 42 43 44 45 46 48 50 51 51 52 53 53 54 52 49 46 43 43 45 48 46
41 38 36 35 38 49 44 38 39 42 42 43 45 43 40 40 40 38 39 40 40 41 43 44 45 46 48 48 49 51 51 51 50 50 50 46 45 39 41 41 43 45 45 47
46 44 44 45 46 48 46 48 47 47 46 45 43 40 40 40 39 40 39 40 41 42 43 45 46 48 49 49 51 52 50 48 49 46 41 41 40 38 38 40 41 42 42 44
37 38 44 47 48 51 52 50 47 46 45 43 42 40 42 41 40 40 40 39 40 41 43 45 46 47 49 50 50 48 48 46 42 39 40 41 38 38 38 39 39 41 41 41
42 35 43 41 42 47 47 45 45 45 44 43 43 43 41 41 40 39 39 40 41 43 44 44 45 47 48 46 45 44 40 38 37 37 38 37 37 37 37 36 35 37 41 39
Wind_Direction
161 152 149 174 182 202 172 178 191 189 204 160 221 266 287 310 156 22 33 38 37 36 38 43 38 39 41 59 72 91 83 60 61 74 60 31 356 300 281 283 291 287 292 298
183 166 155 186 190 161 163 163 192 207 206 160 222 233 267 293 286 326 5 25 25 26 28 23 22 24 22 39 52 45 41 20 7 355 353 346 343 336 326 318 305 294 289 293
199 216 177 172 170 156 166 165 227 220 236 171 219 217 289 326 285 264 303 321 348 2 13 10 6 1 359 353 9 22 20 12 1 345 335 335 333 330 335 320 303 290 295 294
213 212 223 183 168 163 222 270 201 203 224 258 281 243 263 269 303 274 287 289 299 315 323 345 342 336 336 322 314 319 322 329 339 337 333 330 326 322 326 306 304 307 297 297
219 229 233 213 178 187 202 228 246 228 224 192 266 206 264 232 268 276 280 270 282 289 297 314 328 320 315 316 312 302 293 297 307 314 314 314 316 319 317 314 314 312 306 299
214 226 234 227 209 208 222 210 216 206 198 241 219 203 237 265 269 245 273 291 278 285 290 301 310 324 308 304 311 316 316 315 312 312 313 315 318 318 316 311 307 304 300 297
233 230 231 219 220 222 207 198 162 237 228 207 231 220 207 224 235 245 216 252 281 285 295 300 303 309 315 305 307 313 314 311 311 313 314 313 311 309 309 310 309 306 304 303
229 232 236 233 229 230 208 186 179 273 244 243 256 252 250 234 251 242 235 215 265 275 279 286 293 300 304 303 297 294 290 287 292 298 299 298 294 293 298 301 304 305 304 303
232 223 249 236 222 216 241 205 197 223 211 202 269 261 247 252 247 253 246 244 237 266 270 281 283 290 295 296 296 297 299 302 303 301 298 297 298 297 296 295 294 292 292 292
214 222 224 223 219 218 195 217 219 197 206 223 240 249 247 257 247 253 252 246 232 254 269 275 277 286 290 294 290 291 296 300 299 296 297 300 302 304 302 301 299 295 292 289
217 209 231 233 231 227 223 222 205 204 222 221 249 257 247 268 266 264 257 253 245 248 258 259 271 268 283 288 287 291 296 295 295 297 303 305 306 308 306 305 301 297 296 295
225 228 200 238 242 230 223 239 222 219 242 230 201 254 264 275 276 268 262 262 255 257 250 250 259 262 277 276 282 290 295 298 301 306 307 308 308 307 303 302 299 298 298 297
223 223 217 219 230 229 225 216 225 224 213 224 213 246 258 273 272 267 269 273 268 264 252 243 260 261 274 269 277 284 289 293 301 303 304 305 305 303 303 301 301 300 298 295
226 225 221 224 239 240 242 228 217 217 235 231 254 247 271 269 265 274 271 270 272 272 264 263 266 266 266 271 274 278 284 291 297 297 300 300 299 299 298 302 302 300 300 301
222 225 224 201 218 244 239 227 221 222 222 221 229 225 240 259 276 278 279 282 283 280 274 266 271 270 270 273 274 278 285 293 292 292 291 286 296 298 302 301 302 302 304 303
223 227 224 221 208 225 212 235 225 230 226 234 237 243 255 262 273 274 275 277 280 283 279 274 278 276 275 278 281 288 282 283 279 285 290 292 297 300 301 301 302 303 302 302
226 225 228 225 225 227 228 216 227 232 240 242 241 249 254 272 273 277 280 275 276 280 283 280 277 277 280 281 281 280 281 284 287 290 294 298 300 300 299 301 302 303 303 303
224 223 230 225 223 231 235 235 239 238 236 234 236 248 267 280 286 287 285 283 284 286 284 279 277 279 281 285 285 288 290 290 292 294 296 298 298 299 300 301 304 303 303 303
226 227 226 226 224 236 239 233 228 228 237 253 258 264 271 281 292 289 290 293 289 287 284 282 284 286 286 285 286 287 288 289 290 293 295 296 296 298 301 302 302 302 302 303
224 231 223 232 222 237 250 265 256 248 247 259 260 268 278 288 294 290 293 287 289 287 287 287 285 284 285 284 284 285 287 288 291 293 294 298 300 299 300 301 301 304 303 305
225 229 227 224 239 236 244 241 242 243 252 259 271 279 286 289 290 288 291 292 289 288 287 287 287 286 284 284 285 287 289 291 295 297 297 297 297 299 300 301 303 301 304 306
228 230 229 228 230 239 247 247 250 255 264 268 276 281 284 286 284 287 287 288 288 287 286 285 285 285 287 289 291 291 295 296 295 296 298 299 299 297 299 299 302 303 306 306
230 232 227 228 233 238 247 233 249 257 263 273 276 279 281 280 282 285 284 285 283 282 283 284 285 288 289 290 291 294 296 298 299 300 302 302 303 299 300 301 303 304 305 311
230 227 220 221 227 236 244 248 257 263 267 270 273 275 276 280 280 280 281 280 280 281 283 285 286 287 288 291 294 297 299 301 303 303 300 302 304 300 301 304 305 309 310 311
238 228 230 235 237 241 246 253 259 263 265 268 271 272 273 276 278 279 280 281 282 282 282 284 286 288 291 297 299 301 302 303 301 301 299 304 303 301 302 303 305 305 307 312
226 228 231 236 236 241 247 249 253 258 261 264 266 271 274 277 278 279 280 279 281 282 286 289 291 296 299 299 300 302 301 300 298 301 303 304 303 302 301 302 304 306 309 314
Height
5938 5941 5941 5945 5947 5947 5953 5958 5958 5957 5953 5955 5959 5949 5945 5945 5945 5943 5943 5942 5940 5939 5939 5939 5938 5937 5936 5935 5934 5933 5933 5933 5933 5932 5932 5932 5932 5932 5932 5933 5933 5932 5931 5930
5938 5939 5941 5945 5944 5945 5948 5954 5958 5954 5951 5953 5956 5954 5947 5946 5947 5944 5943 5943 5942 5941 5940 5939 5939 5939 5938 5936 5935 5935 5934 5934 5933 5933 5933 5932 5932 5932 5932 5933 5931 5930 5929 5928
5935 5938 5940 5942 5942 5942 5948 5954 5956 5954 5950 5951 5955 5954 5948 5948 5946 5945 5944 5943 5943 5943 5942 5941 5940 5939 5939 5937 5936 5936 5935 5934 5934 5933 5932 5932 5932 5932 5932 5929 5930 5928 5927 5926
5933 5935 5937 5939 5940 5942 5952 5950 5950 5952 5951 5953 5952 5956 5949 5946 5946 5945 5944 5943 5943 5943 5943 5942 5941 5939 5939 5938 5937 5936 5935 5934 5934 5933 5932 5931 5930 5929 5930 5920 5928 5925 5924 5923
5933 5933 5934 5936 5938 5942 5950 5945 5945 5946 5949 5953 5953 5955 5951 5950 5946 5943 5943 5942 5941 5941 5942 5942 5941 5939 5938 5937 5936 5936 5934 5933 5932 5931 5930 5929 5928 5927 5926 5925 5923 5922 5920 5919
5929 5929 5931 5934 5936 5939 5941 5942 5943 5943 5948 5953 5953 5954 5953 5952 5948 5947 5944 5940 5940 5939 5940 5940 5939 5938 5937 5935 5934 5932 5931 5930 5929 5928 5927 5926 5925 5924 5922 5921 5919 5918 5916 5914
5924 5926 5928 5931 5934 5935 5937 5939 5944 5947 5948 5951 5951 5951 5952 5950 5943 5944 5947 5941 5938 5938 5938 5937 5937 5936 5935 5933 5932 5930 5929 5927 5926 5924 5923 5922 5920 5918 5917 5915 5913 5911 5909 5907
5920 5922 5923 5928 5930 5931 5934 5940 5947 5949 5949 5950 5944 5945 5946 5940 5939 5939 5940 5942 5939 5936 5934 5935 5934 5933 5932 5931 5930 5930 5929 5927 5925 5923 5921 5919 5918 5916 5913 5911 5907 5905 5902 5900
5918 5921 5920 5921 5926 5931 5931 5934 5942 5943 5945 5945 5945 5940 5938 5936 5936 5935 5936 5937 5940 5933 5933 5931 5930 5929 5929 5927 5926 5924 5923 5922 5920 5918 5917 5915 5913 5911 5909 5907 5905 5902 5899 5895
5917 5920 5920 5918 5921 5924 5928 5931 5934 5937 5943 5942 5942 5938 5939 5931 5932 5931 5932 5932 5934 5933 5930 5927 5927 5923 5924 5923 5921 5919 5918 5916 5914 5912 5911 5909 5907 5905 5902 5900 5897 5895 5891 5888
5907 5912 5916 5913 5915 5919 5922 5924 5930 5936 5938 5939 5940 5937 5928 5928 5927 5927 5927 5927 5928 5928 5927 5926 5923 5922 5919 5917 5915 5914 5912 5910 5908 5906 5903 5901 5898 5896 5893 5890 5887 5883 5880 5877
5900 5904 5910 5909 5910 5915 5920 5920 5923 5928 5929 5931 5932 5929 5922 5921 5922 5922 5922 5921 5923 5922 5922 5922 5920 5918 5916 5915 5910 5907 5905 5902 5899 5897 5894 5892 5889 5886 5883 5880 5876 5873 5870 5866
5892 5896 5903 5907 5906 5907 5910 5917 5920 5922 5925 5928 5929 5926 5918 5915 5918 5917 5917 5916 5917 5916 5916 5917 5913 5911 5911 5908 5905 5903 5900 5895 5893 5890 5887 5884 5880 5876 5872 5869 5866 5862 5857 5853
5884 5889 5894 5903 5904 5906 5904 5908 5913 5918 5921 5922 5923 5919 5916 5911 5913 5911 5911 5911 5911 5910 5909 5907 5905 5905 5904 5901 5899 5895 5892 5888 5887 5884 5881 5876 5872 5867 5863 5859 5854 5849 5844 5838
5876 5881 5887 5894 5902 5902 5902 5902 5906 5908 5912 5916 5921 5916 5910 5901 5908 5907 5906 5905 5904 5902 5902 5900 5898 5899 5896 5893 5890 5887 5886 5882 5879 5876 5873 5869 5863 5858 5852 5847 5841 5835 5829 5822
5871 5874 5880 5886 5892 5895 5899 5898 5900 5902 5905 5908 5911 5912 5898 5901 5901 5901 5900 5900 5898 5896 5894 5893 5891 5890 5888 5883 5882 5882 5875 5874 5871 5866 5862 5857 5852 5846 5840 5834 5827 5822 5815 5807
5863 5868 5871 5876 5883 5888 5887 5892 5896 5899 5898 5900 5903 5902 5891 5893 5895 5894 5893 5892 5890 5889 5887 5885 5883 5881 5879 5876 5874 5870 5867 5863 5859 5854 5849 5844 5839 5833 5827 5820 5814 5807 5800 5792
5855 5860 5865 5870 5875 5876 5880 5885 5888 5890 5891 5891 5892 5886 5886 5886 5886 5884 5885 5882 5881 5879 5877 5875 5873 5871 5869 5866 5863 5859 5855 5851 5847 5842 5837 5832 5825 5819 5813 5806 5799 5792 5785 5778
5846 5851 5856 5861 5866 5872 5868 5873 5878 5880 5883 5880 5880 5877 5880 5879 5878 5874 5874 5873 5871 5870 5868 5865 5863 5861 5858 5855 5852 5848 5844 5840 5835 5830 5825 5819 5813 5806 5799 5792 5785 5779 5772 5764
5841 5843 5850 5856 5861 5863 5867 5864 5867 5871 5871 5869 5872 5870 5871 5871 5870 5863 5865 5863 5861 5859 5857 5855 5853 5851 5849 5845 5841 5837 5833 5828 5823 5818 5812 5805 5798 5792 5786 5779 5772 5765 5758 5751
5831 5835 5841 5849 5852 5858 5849 5853 5857 5860 5866 5859 5861 5863 5862 5860 5860 5857 5854 5852 5851 5848 5846 5844 5842 5840 5837 5833 5829 5825 5820 5816 5811 5805 5799 5793 5787 5780 5773 5767 5761 5755 5748 5740
5824 5828 5835 5842 5847 5845 5844 5846 5851 5850 5852 5853 5853 5852 5851 5852 5849 5846 5844 5842 5841 5839 5836 5834 5831 5828 5824 5821 5817 5812 5808 5804 5799 5793 5788 5781 5774 5768 5762 5757 5751 5745 5738 5730
5815 5822 5831 5835 5838 5833 5830 5830 5840 5842 5844 5845 5843 5842 5841 5839 5837 5836 5835 5834 5832 5829 5826 5823 5819 5815 5812 5809 5805 5801 5797 5791 5786 5780 5773 5767 5761 5756 5751 5746 5741 5735 5728 5720
5805 5811 5816 5821 5822 5823 5826 5830 5832 5832 5834 5833 5832 5832 5830 5829 5829 5827 5825 5823 5821 5818 5815 5812 5808 5804 5801 5798 5794 5789 5783 5777 5772 5766 5760 5756 5751 5746 5741 5736 5731 5725 5718 5711
5795 5802 5803 5805 5811 5815 5818 5819 5821 5821 5821 5821 5821 5820 5820 5820 5818 5817 5814 5812 5810 5807 5803 5800 5797 5793 5790 5785 5780 5775 5770 5765 5760 5755 5751 5746 5742 5738 5734 5727 5722 5716 5710 5703
5785 5788 5792 5797 5803 5801 5806 5809 5810 5811 5811 5812 5812 5811 5810 5808 5806 5805 5803 5800 5798 5795 5792 5789 5786 5781 5777 5772 5768 5763 5759 5754 5751 5747 5742 5737 5733 5728 5724 5719 5714 5708 5700 5695